• In Hungary
  • List of Countries
  • For 7 days
  • Water Temperature
  • Satellite Maps
  • Weather Map
  • News
  • Weather Widgets
  • user-avatar
    Login

    Hourly Weather Koprilovo

    Today, 21 August, Tuesday

    Time Temperature Precipitation Wind Pressure Humidity
    00:00 +17°C° 0.1 mm 3 mps 744 mmHg 94%
    01:00 +17°C° 0.1 mm 3 mps 744 mmHg 94%
    02:00 +17°C° 0 mm 3 mps 743 mmHg 95%
    03:00 +17°C° 0.1 mm 4 mps 743 mmHg 94%
    04:00 +17°C° 0.1 mm 4 mps 742 mmHg 93%
    05:00 +16°C° 0.1 mm 5 mps 741 mmHg 92%
    06:00 +17°C° 0.5 mm 5 mps 741 mmHg 90%
    07:00 +19°C° 0.5 mm 6 mps 740 mmHg 89%
    08:00 +20°C° 0.5 mm 6 mps 740 mmHg 88%
    09:00 +20°C° 0.8 mm 6 mps 740 mmHg 87%
    10:00 +20°C° 0.8 mm 7 mps 739 mmHg 86%
    11:00 +20°C° 0.8 mm 7 mps 739 mmHg 85%
    12:00 +20°C° 0.3 mm 7 mps 739 mmHg 79%
    13:00 +21°C° 0.3 mm 6 mps 740 mmHg 74%
    14:00 +21°C° 0.3 mm 6 mps 740 mmHg 68%
    15:00 +20°C° 0 mm 6 mps 740 mmHg 66%
    16:00 +19°C° 0 mm 6 mps 741 mmHg 64%
    17:00 +19°C° 0 mm 5 mps 741 mmHg 62%
    18:00 +16°C° 0 mm 5 mps 742 mmHg 67%
    19:00 +14°C° 0 mm 4 mps 742 mmHg 72%
    20:00 +13°C° 0 mm 4 mps 742 mmHg 78%
    21:00 +12°C° 0 mm 3 mps 743 mmHg 79%
    22:00 +12°C° 0 mm 3 mps 743 mmHg 81%
    23:00 +11°C° 0 mm 3 mps 743 mmHg 83%

    Tomorrow, 22 August, Wednesday

    Time Temperature Precipitation Wind Pressure Humidity
    00:00 +11°C° 0 mm 4 mps 743 mmHg 83%
    01:00 +10°C° 0 mm 4 mps 744 mmHg 83%
    02:00 +10°C° 0 mm 4 mps 744 mmHg 83%
    03:00 +10°C° 0 mm 4 mps 744 mmHg 83%
    04:00 +10°C° 0 mm 4 mps 744 mmHg 83%
    05:00 +10°C° 0 mm 4 mps 745 mmHg 83%
    06:00 +10°C° 0 mm 5 mps 745 mmHg 78%
    07:00 +13°C° 0 mm 5 mps 746 mmHg 73%
    08:00 +14°C° 0 mm 5 mps 746 mmHg 68%
    09:00 +15°C° 0 mm 6 mps 747 mmHg 63%
    10:00 +16°C° 0 mm 6 mps 747 mmHg 58%
    11:00 +17°C° 0 mm 6 mps 748 mmHg 53%
    12:00 +17°C° 0 mm 6 mps 748 mmHg 51%
    13:00 +19°C° 0 mm 6 mps 748 mmHg 49%
    14:00 +19°C° 0 mm 6 mps 748 mmHg 47%
    15:00 +17°C° 0 mm 5 mps 749 mmHg 50%
    16:00 +18°C° 0 mm 4 mps 749 mmHg 54%
    17:00 +17°C° 0 mm 4 mps 750 mmHg 58%
    18:00 +16°C° 0 mm 3 mps 750 mmHg 63%
    19:00 +13°C° 0 mm 3 mps 751 mmHg 69%
    20:00 +12°C° 0 mm 2 mps 751 mmHg 74%
    21:00 +12°C° 0 mm 2 mps 752 mmHg 77%
    22:00 +10°C° 0 mm 2 mps 752 mmHg 79%
    23:00 +9°C° 0 mm 2 mps 753 mmHg 81%

    Day after tomorrow, 23 August, Thursday

    Time Temperature Precipitation Wind Pressure Humidity
    00:00 +9°C° 0 mm 2 mps 753 mmHg 82%
    01:00 +8°C° 0 mm 2 mps 753 mmHg 83%
    02:00 +8°C° 0 mm 2 mps 753 mmHg 84%
    03:00 +8°C° 0 mm 2 mps 754 mmHg 84%
    04:00 +8°C° 0 mm 2 mps 754 mmHg 83%
    05:00 +7°C° 0 mm 2 mps 754 mmHg 83%
    06:00 +10°C° 0 mm 2 mps 754 mmHg 76%
    07:00 +13°C° 0 mm 2 mps 754 mmHg 69%
    08:00 +15°C° 0 mm 2 mps 754 mmHg 63%
    09:00 +16°C° 0 mm 3 mps 754 mmHg 58%
    10:00 +18°C° 0 mm 3 mps 754 mmHg 53%
    11:00 +19°C° 0 mm 3 mps 754 mmHg 48%
    12:00 +20°C° 0 mm 3 mps 754 mmHg 47%
    13:00 +20°C° 0 mm 3 mps 754 mmHg 46%
    14:00 +21°C° 0 mm 3 mps 754 mmHg 45%
    15:00 +20°C° 0 mm 3 mps 753 mmHg 49%
    16:00 +20°C° 0 mm 3 mps 753 mmHg 53%
    17:00 +20°C° 0 mm 2 mps 753 mmHg 57%
    18:00 +18°C° 0 mm 2 mps 753 mmHg 63%
    19:00 +16°C° 0 mm 2 mps 753 mmHg 70%
    20:00 +14°C° 0 mm 2 mps 753 mmHg 76%
    21:00 +13°C° 0 mm 2 mps 753 mmHg 78%
    22:00 +13°C° 0 mm 2 mps 753 mmHg 80%
    23:00 +12°C° 0 mm 2 mps 753 mmHg 82%

    24 August, Friday

    Time Temperature Precipitation Wind Pressure Humidity
    00:00 +12°C° 0 mm 2 mps 753 mmHg 84%
    01:00 +10°C° 0 mm 2 mps 753 mmHg 85%
    02:00 +10°C° 0 mm 2 mps 753 mmHg 86%
    03:00 +10°C° 0 mm 2 mps 753 mmHg 87%
    04:00 +9°C° 0 mm 2 mps 753 mmHg 88%
    05:00 +9°C° 0 mm 2 mps 753 mmHg 89%
    06:00 +12°C° 0 mm 2 mps 753 mmHg 81%
    07:00 +14°C° 0 mm 2 mps 753 mmHg 74%
    08:00 +17°C° 0 mm 2 mps 753 mmHg 67%
    09:00 +18°C° 0 mm 3 mps 753 mmHg 61%
    10:00 +20°C° 0 mm 3 mps 753 mmHg 55%
    11:00 +21°C° 0 mm 3 mps 753 mmHg 49%
    12:00 +22°C° 0 mm 3 mps 752 mmHg 48%
    13:00 +22°C° 0 mm 3 mps 752 mmHg 47%
    14:00 +24°C° 0 mm 3 mps 752 mmHg 46%
    15:00 +22°C° 0 mm 3 mps 752 mmHg 50%
    16:00 +23°C° 0 mm 2 mps 751 mmHg 55%
    17:00 +21°C° 0 mm 2 mps 751 mmHg 59%
    18:00 +19°C° 0 mm 2 mps 751 mmHg 65%
    19:00 +17°C° 0 mm 2 mps 751 mmHg 72%
    20:00 +15°C° 0 mm 2 mps 751 mmHg 78%
    21:00 +15°C° 0 mm 2 mps 751 mmHg 79%
    22:00 +14°C° 0 mm 2 mps 751 mmHg 81%
    23:00 +14°C° 0 mm 2 mps 751 mmHg 83%

    25 August, Saturday

    Time Temperature Precipitation Wind Pressure Humidity
    00:00 +13°C° 0 mm 2 mps 751 mmHg 84%
    01:00 +13°C° 0 mm 2 mps 751 mmHg 85%
    02:00 +12°C° 0 mm 2 mps 751 mmHg 86%
    03:00 +12°C° 0 mm 2 mps 751 mmHg 87%
    04:00 +12°C° 0 mm 2 mps 751 mmHg 87%
    05:00 +12°C° 0 mm 2 mps 751 mmHg 88%
    06:00 +14°C° 0 mm 2 mps 751 mmHg 80%
    07:00 +16°C° 0 mm 3 mps 751 mmHg 73%
    08:00 +18°C° 0 mm 3 mps 751 mmHg 65%
    09:00 +20°C° 0 mm 3 mps 751 mmHg 59%
    10:00 +22°C° 0 mm 4 mps 751 mmHg 52%
    11:00 +25°C° 0 mm 4 mps 751 mmHg 45%
    12:00 +25°C° 0 mm 4 mps 751 mmHg 44%
    13:00 +26°C° 0 mm 4 mps 750 mmHg 43%
    14:00 +26°C° 0 mm 4 mps 750 mmHg 42%
    15:00 +26°C° 0 mm 4 mps 750 mmHg 47%
    16:00 +25°C° 0 mm 3 mps 750 mmHg 52%
    17:00 +24°C° 0 mm 2 mps 750 mmHg 56%
    18:00 +21°C° 0 mm 2 mps 750 mmHg 62%
    19:00 +19°C° 0 mm 2 mps 750 mmHg 67%
    20:00 +17°C° 0 mm 2 mps 750 mmHg 72%
    21:00 +17°C° 0 mm 2 mps 750 mmHg 74%
    22:00 +16°C° 0 mm 2 mps 750 mmHg 76%
    23:00 +15°C° 0 mm 2 mps 751 mmHg 78%

    26 August, Sunday

    Time Temperature Precipitation Wind Pressure Humidity
    00:00 +15°C° 0 mm 2 mps 751 mmHg 80%
    01:00 +15°C° 0 mm 2 mps 751 mmHg 82%
    02:00 +14°C° 0 mm 2 mps 751 mmHg 84%
    03:00 +14°C° 0 mm 2 mps 751 mmHg 84%
    04:00 +13°C° 0 mm 2 mps 751 mmHg 85%
    05:00 +13°C° 0 mm 2 mps 751 mmHg 85%
    06:00 +15°C° 0 mm 2 mps 751 mmHg 77%
    07:00 +17°C° 0 mm 2 mps 752 mmHg 69%
    08:00 +19°C° 0 mm 3 mps 752 mmHg 62%
    09:00 +21°C° 0 mm 3 mps 752 mmHg 55%
    10:00 +24°C° 0 mm 3 mps 752 mmHg 49%
    11:00 +26°C° 0 mm 3 mps 752 mmHg 42%
    12:00 +26°C° 0 mm 3 mps 752 mmHg 40%
    13:00 +27°C° 0 mm 3 mps 752 mmHg 39%
    14:00 +27°C° 0 mm 3 mps 752 mmHg 37%
    15:00 +27°C° 0 mm 2 mps 752 mmHg 42%
    16:00 +26°C° 0 mm 2 mps 752 mmHg 47%
    17:00 +25°C° 0 mm 1 mps 751 mmHg 52%
    18:00 +23°C° 0 mm 1 mps 752 mmHg 56%
    19:00 +20°C° 0 mm 2 mps 752 mmHg 60%
    20:00 +18°C° 0 mm 2 mps 752 mmHg 64%
    21:00 +17°C° 0 mm 2 mps 752 mmHg 67%
    22:00 +17°C° 0 mm 2 mps 752 mmHg 69%
    23:00 +16°C° 0 mm 2 mps 752 mmHg 71%
    Show more